Voltar ao catálogo

IGS 6A

AtivoMilitarPO
NORAD 37813·PAYLOAD·🇯🇵 Japan

Lançado Sep 23, 2011 de Tanegashima Space Center

Loading…

Próximas Passagens (próximas 24 horas)

TLE

ObsoletoSource: Mike McCants

Época: Mar 28, 2026, 19:17 UTC

1 37813U 11050A   26087.80366954 0.00005100  00000-0  30094-3 0    01
2 37813  98.0387 273.9482 0006512 346.6927  13.3071 15.11576046    06

Acompanhe IGS 6A em tempo real com AllMySat

Download on the App Store